Location: Northern Prairie Star Party
(53.2167°N, 112.5333°W)
Time: 11:53:23
(UTC-06:00)

Daily predictions for brighter satellites

Satellite Brightness Start Highest point End
(mag) Time Altitude Azimuth Time Altitude Azimuth Time Altitude Azimuth
ERS-1 Rocket 3.2 21:23:51 10° SE 21:28:46 57° ENE 21:33:42 10° N
SeaSat 1 3.3 21:25:42 10° ESE 21:30:18 40° NE 21:34:55 10° NNW
CENTAUR R/B 3.6 21:24:04 10° WSW 21:30:26 55° NNW 21:37:45 10° NE
Resurs 01 Rocket 3.5 21:26:52 10° SSW 21:30:53 33° W 21:34:56 10° NNW
Cosmos 1908 Rocket 3.5 21:29:33 10° N 21:33:55 73° ENE 21:38:15 10° SSE
H-2A R/B 4.0 21:32:20 10° E 21:35:02 16° NE 21:37:46 10° NNE
YAOGAN 6 2.6 21:34:02 10° SSE 21:37:38 66° ENE 21:41:13 10° N
Cosmos 1844 Rocket 2.9 21:32:55 10° NNW 21:38:30 64° NE 21:44:02 10° SE
Cosmos 2278 Rocket 3.1 21:34:32 10° NNW 21:39:48 37° NE 21:45:02 10° ESE
Sich 1 Rocket 3.6 21:36:09 10° N 21:40:40 84° E 21:45:10 10° SSE
SPOT 5 3.3 21:39:47 10° SE 21:44:13 42° ENE 21:48:29 10° N
Cosmos 1933 3.3 21:40:58 10° S 21:45:00 89° E 21:49:03 10° NNE
Cosmos 2333 Rocket 3.9 21:42:43 10° ESE 21:45:22 13° E 21:48:01 10° ENE
Cosmos 1782 Rocket 3.6 21:44:10 10° N 21:48:32 63° ENE 21:52:53 10° SSE
CZ-4C R/B 3.1 21:42:42 10° NW 21:49:19 63° NE 21:56:52 10° ESE
MetOp-A 4.3 21:46:36 10° SSE 21:51:54 66° ENE 21:57:14 10° NNW
USA 229 DEB 4.1 21:48:26 10° S 21:54:45 41° ESE 22:01:13 10° NE
USA 229 4.1 21:48:34 10° S 21:54:52 41° ESE 22:01:19 10° NE
Cosmos 1992 Rocket 4.2 21:50:43 10° SSW 21:55:58 81° WNW 22:01:16 10° NNE
Cosmos 1777 Rocket 4.1 21:51:14 10° NNW 21:56:34 89° NE 22:01:50 10° SSE
Meteor 2-10 Rocket 3.8 21:53:26 10° S 21:59:14 76° E 22:04:58 10° NNE
SPOT 1/Viking Rocket 4.0 21:57:12 11° SE 22:02:05 48° ENE 22:07:05 10° N
Okean 1-7 3.5 21:58:53 10° SSE 22:03:03 43° E 22:07:15 10° NNE
Okean 2 Rocket 3.2 21:59:16 10° N 22:03:48 66° ENE 22:08:17 10° SSE
USA 245 4.0 21:59:06 10° SSE 22:04:23 59° ENE 22:08:42 10° N
Cosmos 2219 Rocket 3.3 22:01:54 10° SSE 22:06:08 22° ESE 22:10:23 10° NE
Cosmos 1862 Rocket 4.4 22:02:44 10° SSW 22:07:08 56° WNW 22:11:35 10° N
Cosmos 1782 3.7 22:05:58 12° SSE 22:09:09 30° E 22:12:41 10° NNE
Cosmos 2084 3.2 22:06:55 10° NW 22:10:44 84° NE 22:13:51 16° SE
Cosmos 1633 3.6 22:07:49 10° N 22:11:09 31° ENE 22:13:34 16° SE
USA 267 3.2 22:06:30 10° ENE 22:13:05 81° SSE 22:19:39 10° WSW
Meteor 1-26 Rocket 4.3 22:14:05 10° SSW 22:19:51 89° WNW 22:25:44 10° NNE
Cosmos 2263 Rocket 4.3 22:16:15 10° NW 22:20:17 21° WSW 22:24:19 10° SSW
Cosmos 1346 Rocket 4.3 22:22:04 17° ESE 22:23:37 20° E 22:26:36 10° NE
Abrixas rocket 3.2 22:23:22 10° WSW 22:26:20 31° S 22:27:47 21° SE
Meteor 1-29 4.5 22:23:40 10° N 22:26:58 39° WNW 22:30:13 10° SW
Terra 2.6 22:23:55 16° SE 22:27:14 38° ENE 22:31:37 10° N
ATLAS 3B R/B 3.7 22:21:00 10° NW 22:27:41 42° NNE 22:34:02 10° E
Cosmos 1703 Rocket 3.7 22:23:21 10° SSW 22:27:47 81° WNW 22:32:13 10° N
Cosmos 2369 Rocket 4.4 22:30:07 10° NNW 22:33:49 18° NNE 22:37:31 10° ENE
Helios 1B rocket 4.2 22:31:53 10° N 22:35:38 34° WNW 22:39:22 10° SW
Cosmos 2297 4.5 22:30:41 10° NNW 22:36:10 44° NE 22:40:26 16° ESE
Cosmos 2151 Rocket 3.6 22:33:46 10° N 22:38:14 73° ENE 22:41:22 19° SSE
Cosmos 2322 Rocket 3.7 22:34:00 10° WSW 22:39:17 41° NW 22:44:39 10° NNE
Cosmos 2237 4.2 22:34:00 10° SSW 22:39:42 73° ESE 22:45:26 10° NE
CARTOSAT-1 4.1 22:40:03 21° SE 22:42:38 46° ENE 22:46:47 10° N
Cosmos 1745 Rocket 4.3 22:36:49 10° N 22:43:03 56° ENE 22:47:32 19° SE
Cosmos 2360 Rocket 2.5 22:40:55 10° SW 22:46:34 71° NW 22:52:17 10° NNE
COSMOS 2428 2.7 22:43:29 10° SSW 22:49:08 68° ESE 22:54:50 10° NE
IGS 5A 3.9 22:47:17 23° SE 22:49:32 48° ENE 22:53:34 10° N
USA 234 4.5 22:46:49 12° S 22:51:49 30° SW 22:57:26 10° WNW
Meteor 1-11 Rocket 3.7 22:46:52 10° N 22:52:25 73° ENE 22:56:10 21° SSE
Cosmos 2298 Rocket 4.3 22:47:21 10° NNW 22:52:40 59° ENE 22:55:58 23° SE
Cosmos 2221 Rocket 4.1 22:48:29 10° SSW 22:52:53 62° WNW 22:57:19 10° N
Okean 1 Rocket 3.7 22:48:37 10° N 22:52:54 43° ENE 22:55:07 24° SE
H-2A R/B 1.9 22:49:47 19° SSE 22:53:25 86° WSW 22:58:23 10° NNW
Aureole 2 Rocket 4.1 22:55:24 14° ENE 22:55:24 14° ENE 22:56:07 10° ENE
Cosmos 1844 4.2 22:48:42 10° NW 22:54:14 54° WSW 22:58:22 17° S
Meteor 1-10 Rocket 4.3 22:48:38 10° S 22:54:26 72° E 23:00:16 10° NNE
Cosmos 1606 2.6 22:52:07 20° S 22:54:38 72° E 22:58:26 10° NNE
Timation 1 Rocket 4.3 22:51:12 10° NNW 22:57:14 82° NE 23:01:08 23° SE
Cosmos 1980 4.4 22:55:19 21° SSE 22:58:11 34° ESE 23:03:14 10° NE
Cosmos 1674 Rocket 4.0 22:57:40 26° SE 22:59:32 41° E 23:03:36 10° NNE
DMSP B5D2-2 4.5 22:56:00 10° NNE 23:01:04 46° E 23:04:00 23° SSE
NOSS 0 Rocket 4.3 23:00:11 18° S 23:04:23 42° ESE 23:10:07 10° NE
Cosmos 2322 4.2 22:59:02 10° SW 23:04:42 62° NW 23:10:23 10° NNE
SL-16 R/B 3.7 23:04:05 17° ESE 23:04:50 18° E 23:08:29 10° ENE
MOS 1-B Rocket 4.4 23:00:06 13° S 23:05:13 53° W 23:10:43 10° NNW
ARGOS 3.9 23:00:30 12° S 23:05:15 49° W 23:10:29 10° NNW
Cosmos 1536 3.0 23:03:26 10° N 23:07:27 56° ENE 23:09:05 32° SE
Cosmos 1570 Rocket 4.0 23:03:08 15° S 23:07:28 61° ESE 23:12:42 10° NNE
SeaSat 1 3.1 23:04:32 19° S 23:07:48 47° WSW 23:12:35 10° NW
Cosmos 1937 Rocket 3.6 23:03:51 10° NNW 23:09:07 66° ENE 23:11:58 27° SE
H-2A R/B 2.0 23:08:08 27° SSE 23:10:26 88° WSW 23:14:53 10° NNW
SL-16 R/B 4.3 23:05:30 10° W 23:10:28 30° NW 23:15:28 10° NNE
Cosmos 990 Rocket 4.1 23:12:38 10° NNW 23:17:47 65° ENE 23:20:23 29° SE
Cosmos 2208 Rocket 4.0 23:13:58 16° S 23:18:12 67° ESE 23:23:28 10° NNE
Cosmos 858 Rocket 4.4 23:15:22 10° NNW 23:20:38 90° WSW 23:23:17 30° SSE
Cosmos 1844 Rocket 4.2 23:17:20 10° NW 23:22:01 28° WSW 23:26:05 13° SSW
SPOT 5 4.3 23:18:27 11° SSW 23:22:25 30° W 23:26:27 10° NNW
CENTAUR R/B 4.3 23:16:11 10° WNW 23:22:36 38° N 23:29:47 10° ENE
Cosmos 1975 Rocket 4.2 23:23:12 25° ESE 23:24:04 27° E 23:27:50 10° NNE
Cosmos 2278 Rocket 2.6 23:18:37 10° NW 23:24:11 57° WSW 23:27:20 25° S
CZ-4C R/B 3.5 23:23:25 37° ESE 23:24:27 50° ENE 23:27:56 10° N
Cosmos 2237 Rocket 2.4 23:22:05 25° S 23:25:08 49° ESE 23:30:36 10° NE
USA 129 3.3 23:23:38 10° N 23:25:13 33° NW 23:25:13 33° NW
Cosmos 2333 4.3 23:21:04 10° SW 23:26:50 79° WNW 23:32:40 10° NNE
Cosmos 2150 Rocket 4.1 23:21:24 10° NNW 23:26:52 89° NE 23:29:37 31° SSE
ALOS 2 4.4 23:25:29 16° E 23:27:28 21° ENE 23:30:44 10° N
Cosmos 1300 Rocket 3.7 23:23:13 10° NNW 23:27:34 71° W 23:29:37 30° S
Iridium 4 Rocket 2.9 23:23:48 10° N 23:27:59 88° E 23:29:42 35° S
Cosmos 2333 Rocket 2.2 23:23:51 15° SSW 23:28:33 66° ESE 23:34:18 10° NE
Cosmos 1553 Rocket 3.9 23:26:20 19° S 23:31:00 87° ESE 23:37:14 10° N
Cosmos 1898 Rocket 3.7 23:29:04 10° NNW 23:34:13 65° WSW 23:36:41 30° S
ASTEX 1 3.7 23:34:28 25° SSW 23:37:23 64° W 23:42:21 10° N
CZ-4C R/B 3.3 23:31:19 10° NW 23:37:59 51° SW 23:42:12 26° S
NOSS 3-1 (C) 3.4 23:32:49 10° SSW 23:38:44 71° SE 23:45:30 10° NE
Cosmos 1763 Rocket 4.3 23:41:40 29° ESE 23:42:33 31° ESE 23:47:11 10° NE
Cosmos 1125 Rocket 4.3 23:37:59 10° NNW 23:43:07 44° NE 23:45:45 25° ESE
USA 229 DEB 4.1 23:38:37 10° WSW 23:45:29 68° NW 23:52:32 10° NE
USA 229 4.0 23:38:43 10° WSW 23:45:35 69° NW 23:52:38 10° NE
Cosmos 1633 4.4 23:42:59 10° NNW 23:46:03 25° W 23:47:52 17° SW
SL-24 DEB 4.4 23:44:43 39° SE 23:46:14 59° E 23:50:48 10° N
Meteor 1-5 Rocket 4.3 23:42:48 10° NNW 23:48:28 77° W 23:51:18 31° S
Cosmos 2219 Rocket 2.3 23:43:52 10° SW 23:49:29 79° WNW 23:55:10 10° NNE
